SCP
0 0 0 0 0 0 0 0 0 0 0 0 0 0 0 0 0 0 0 0 -0 -0 -0 0 0 0 0 0 0 0 0 0 0 0 0 0 0 0 0 0 0 0 0 0
0 0 0 0 0 0 0 0 0 0 0 0 0 0 0 0 0 0 0 0 0 0 0 0 0 0 0 0 0 0 0 0 0 0 0 0 0 0 0 0 0 0 0 0
0 0 0 0 0 0 0 0 0 0 0 0 0 0 0 0 0 0 0 0 0 0 0 0 0 0 0 0 0 0 0 0 0 0 0 0 0 0 0 0 0 0 0 0
0 0 0 0 0 0 0 0 0 0 0 0 0 0 0 0 0 0 0 0 0 0 0 0 0 0 0 0 0 0 0 0 0 0 0 0 0 0 0 0 0 0 0 0
0 0 0 0 0 0 0 0 0 0 0 0 0 0 0 0 0 0 0 0 0 0 0 0 0 0 0 0 0 0 0 0 0 0 0 0 0 0 0 0 0 0 0 0
0 0 0 0 0 0 0 0 0 0 0 0 0 0 0 0 0 0 0 0 0 0 0 0 0 0 0 0 0 0 0 0 0 0 0 0 0 0 0 0 0 0 0 0
0 0 0 0 0 0 0 0 0 0 0 0 0 0 0 0 0 0 0 0 0 0 0 0 0 0 0 0 0 0 0 0 0 0 0 0 0 0 0 0 0 0 0 0
0 0 0 0 0 0 0 0 0 0 0 0 0 0 0 0 0 0 0 0 0 0 0 0 0 0 0 0 0 0 0 0 0 0 0 0 0 0 0 0 0 0 0 -0
0 0 0 0 0 0 0 0 0 0 0 0 0 0 0 0 0 0 0 0 0 0 0 0 0 0 0 0 0 0 0 0 0 0 0 0 0 0 0 0 0 0 0 -0
0 0 0 0 0 0 0 0 0 0 0 0 0 0 0 0 0 0 0 0 0 0 0 0 0 0 0 0 0 0 0 0 0 0 0 0 0 0 0 0 0 0 0 0
0 0 0 0 0 0 0 0 0 0 0 0 0 0 0 0 0 0 0 0 0 0 0 0 0 0 0 0 0 0 0 0 0 0 0 0 0 0 0 0 0 0 0 0
0 0 0 0 0 0 0 0 0 0 0 0 0 0 0 0 0 0 0 0 0 0 0 0 0 0 0 0 0 0 0 0 0 0 0 0 0 0 0 0 0 0 0 0
0 0 0 0 0 0 0 0 0 0 0 0 0 0 0 0 0 0 0 0 0 0 0 0 0 0 0 0 0 0 0 0 0 0 0 0 0 0 0 0 0 0 0 0
0 0 0 0 0 0 0 0 0 0 0 0 0 0 0 0 0 0 0 0 0 0 0 0 0 0 0 0 0 0 0 0 0 0 0 0 0 0 0 0 0 0 0 0
0 0 0 0 0 0 0 0 0 0 0 0 0 0 0 0 0 0 0 0 0 0 0 0 0 0 0 0 0 0 0 0 0 0 0 0 0 0 0 0 0 0 0 0
0 0 0 0 0 0 0 0 0 0 0 0 0 0 0 0 0 0 0 0 0 0 0 0 0 0 0 0 0 0 0 0 0 0 0 0 0 0 0 0 0 0 0 0
0 0 0 0 0 0 0 0 0 0 0 0 0 0 0 0 0 0 0 0 0 0 0 0 0 0 0 0 0 0 0 0 0 0 0 0 0 0 0 0 0 0 0 0
0 0 0 0 0 0 0 0 0 0 0 0 0 0 0 0 0 0 0 0 0 0 0 0 0 0 0 0 0 0 0 0 0 0 0 0 0 0 0 0 0 0 0 0
0 0 0 0 0 0 0 0 0 0 0 0 0 0 0 0 0 0 0 0 0 0 0 0 0 0 0 0 0 0 0 0 0 0 0 0 0 0 0 0 0 0 0 0
0 0 0 0 0 0 0 0 0 0 0 0 0 0 0 0 0 0 0 0 0 0 0 0 0 0 0 0 0 0 0 0 0 0 0 0 0 0 0 0 0 0 0 0
0 0 0 0 0 0 0 0 0 0 0 0 0 0 0 0 0 0 0 0 0 0 0 0 0 0 0 0 0 0 0 0 0 0 0 0 0 0 0 0 0 0 0 0
0 0 0 0 0 0 0 -0 0 0 0 0 0 0 0 0 0 0 0 0 0 0 0 0 0 0 0 0 0 0 0 0 0 0 0 0 0 0 0 0 0 0 0 0
0 0 0 0 0 0 -0 -0 0 0 0 0 0 0 0 0 0 0 0 0 0 0 0 0 0 0 0 0 0 0 0 0 0 0 0 0 0 0 0 0 0 0 0 0
0 0 0 0 0 0 -0 -0 0 0 0 0 0 0 0 0 0 0 0 0 0 0 0 0 0 0 0 0 0 0 0 0 0 0 0 0 0 0 0 0 0 0 0 0
0 0 0 0 0 0 0 0 0 0 0 0 0 0 0 0 0 0 0 0 0 0 0 0 0 0 0 0 0 0 0 0 0 0 0 0 0 0 0 0 0 0 0 0
0 0 -0 0 0 0 0 0 0 0 0 0 0 0 0 0 0 0 0 0 0 0 0 0 0 0 0 0 0 0 0 0 0 0 0 0 0 0 0 0 0 0 0 0
Wind_Speed
2 1 2 2 4 4 4 6 8 6 2 4 8 11 10 6 5 6 5 5 5 5 4 2 2 2 2 2 2 2 2 1 1 1 1 0 1 1 1 1 2 2 2 2
2 2 2 2 2 3 5 7 8 5 1 4 8 11 9 5 4 5 5 5 5 4 3 2 2 2 2 2 2 2 2 2 2 1 1 1 1 1 1 1 2 3 3 2
3 1 1 1 1 4 5 7 8 7 5 4 7 9 5 2 2 2 3 3 4 4 4 3 2 2 2 2 3 2 2 2 2 1 0 0 1 1 1 2 2 2 3 3
1 1 1 2 3 5 6 4 6 6 6 4 4 8 4 3 3 2 2 2 3 3 3 3 2 2 2 2 2 2 1 2 2 1 1 1 1 2 3 3 3 4 3 3
2 1 1 3 3 4 4 2 4 5 6 6 5 8 5 1 4 4 3 2 3 2 2 2 2 2 2 1 1 1 1 1 1 1 2 2 2 2 2 3 4 4 3 3
1 0 2 2 2 1 1 1 1 3 4 7 6 8 6 2 3 3 2 3 3 2 2 2 1 1 1 1 1 0 0 1 1 1 1 2 2 3 3 4 4 4 3 3
2 2 1 0 1 2 2 3 3 4 5 5 1 6 6 1 1 2 3 3 3 2 1 1 1 1 1 1 1 1 1 1 2 2 2 2 3 4 4 4 4 4 4 3
3 3 2 1 2 2 3 4 4 6 6 4 3 7 3 0 1 1 2 2 3 3 2 2 2 2 2 2 1 1 2 2 2 2 3 3 3 3 3 4 4 4 4 4
3 3 1 1 1 2 3 3 3 4 4 7 6 5 5 2 2 2 2 2 3 3 2 2 2 2 2 2 2 2 2 3 3 3 3 3 4 4 4 5 4 4 4 4
2 4 1 0 1 0 3 1 3 4 5 8 7 6 4 2 2 2 2 3 4 3 3 3 3 2 2 2 2 2 2 3 3 3 3 3 4 4 4 5 5 5 5 5
2 3 2 2 4 4 3 3 4 4 4 6 8 5 0 2 2 3 3 4 4 4 3 3 3 3 2 2 2 2 2 3 3 3 4 4 4 4 4 5 5 5 5 5
1 3 4 4 0 3 4 4 5 5 5 5 7 6 2 1 1 2 4 4 4 4 4 3 3 3 2 2 3 3 3 3 3 3 4 4 4 4 4 5 5 5 5 5
2 3 4 3 3 2 3 4 4 4 3 6 8 7 3 0 3 3 4 5 5 4 4 3 3 3 3 3 3 3 3 4 3 3 4 4 4 4 5 5 6 6 6 6
2 4 7 9 6 2 5 6 6 6 6 8 12 13 8 7 7 7 7 6 5 4 4 4 3 4 4 4 4 4 4 4 4 4 4 4 4 5 5 5 6 6 6 6
2 5 7 10 9 7 9 10 10 11 11 11 13 13 13 9 8 7 7 6 6 5 5 5 5 5 5 4 4 4 4 4 4 4 4 4 5 5 5 5 6 6 6 6
2 4 4 8 7 8 11 13 12 13 13 15 16 16 8 6 5 6 6 6 6 7 7 6 6 6 5 5 5 5 4 4 4 4 5 5 5 5 5 6 6 6 6 7
3 3 4 6 5 7 11 10 11 9 10 10 12 9 4 6 7 7 7 6 6 7 7 7 7 6 6 5 5 5 5 4 4 4 4 4 5 5 5 6 6 6 7 7
5 4 4 5 4 9 4 0 5 8 9 8 8 7 6 7 8 8 6 5 6 7 8 7 6 6 6 5 5 5 4 4 4 4 4 4 5 5 6 6 6 7 6 7
4 4 3 3 6 10 6 1 3 5 6 4 6 6 6 6 7 5 1 3 6 7 7 6 6 5 5 5 4 4 4 4 4 4 5 5 5 6 6 6 7 7 7 7
1 3 3 4 6 7 2 1 1 3 5 1 2 5 6 6 7 5 4 7 8 7 6 6 5 5 4 4 3 4 4 4 5 5 5 5 6 6 6 7 7 7 7 7
2 3 5 7 8 8 2 1 1 4 3 2 3 5 5 6 7 7 8 8 7 6 6 5 4 4 4 4 3 4 5 5 5 5 6 6 6 6 6 7 6 7 7 7
5 5 5 5 7 7 2 1 3 4 4 4 5 5 6 7 7 7 8 8 7 6 6 5 4 4 4 4 4 5 5 5 5 5 6 6 6 6 5 6 6 6 6 7
5 4 3 6 5 3 1 2 2 3 5 6 6 6 6 7 7 8 8 8 7 6 6 5 4 5 4 4 4 5 5 5 5 5 6 6 6 6 5 6 6 6 6 5
3 1 4 6 7 4 4 3 4 5 5 6 6 6 6 7 8 8 8 7 7 6 5 5 5 5 5 5 5 5 5 5 5 6 6 6 5 5 5 5 5 5 5 5
3 3 4 6 6 5 4 4 4 5 5 5 6 6 6 7 8 8 7 7 7 6 5 5 5 5 6 5 5 5 5 4 5 5 5 5 5 5 5 5 5 6 6 6
3 4 5 6 4 4 6 5 5 5 6 6 6 7 7 6 7 8 7 7 6 6 6 5 6 6 6 5 6 5 5 5 5 5 5 4 4 4 4 5 5 7 8 10
Wind_Direction
39 155 219 235 238 270 263 260 272 280 319 274 263 270 275 274 252 255 254 251 252 258 262 247 232 228 227 239 236 231 201 190 178 186 236 260 313 309 322 333 338 323 316 319
162 235 267 277 235 235 245 260 274 279 295 280 283 277 275 269 257 263 262 261 261 268 262 255 246 229 233 234 244 234 208 198 195 217 250 273 281 276 302 312 316 321 312 309
212 33 46 195 214 238 248 257 273 283 299 246 284 268 236 221 257 287 282 275 272 266 258 248 247 241 243 240 245 228 219 207 205 203 197 264 283 282 299 309 313 314 310 309
227 309 237 241 257 260 264 269 268 270 274 265 283 281 254 245 266 274 287 285 281 274 265 254 246 251 243 243 242 226 214 207 202 196 208 227 256 275 292 304 307 309 301 300
200 194 238 251 276 251 272 313 264 259 254 265 241 260 265 239 265 278 283 293 297 297 278 264 260 262 262 251 221 212 197 210 205 209 219 235 258 279 289 297 297 302 298 294
247 212 297 297 334 281 222 215 210 219 234 251 243 246 267 231 260 284 299 325 327 332 321 295 284 282 274 260 223 219 225 269 265 248 253 260 270 284 291 297 297 298 298 296
242 178 137 266 230 161 227 242 253 236 227 246 189 243 260 304 283 282 290 319 342 347 325 309 321 314 312 279 251 244 244 279 292 276 269 277 279 282 284 292 294 299 295 294
270 241 164 210 257 243 226 249 255 269 271 276 211 242 261 101 298 307 308 319 333 325 308 296 295 292 286 277 268 250 257 276 292 295 289 283 285 282 283 289 290 289 287 288
256 259 77 348 330 256 209 220 299 277 281 273 253 260 270 204 260 286 309 326 326 318 308 294 290 287 275 264 271 267 271 286 292 296 300 293 287 285 287 290 289 288 284 284
259 267 248 356 210 143 301 204 200 227 261 265 262 251 257 236 266 285 302 307 304 301 303 303 299 296 296 283 283 294 288 291 293 296 296 297 294 288 287 286 286 286 287 285
237 244 246 217 220 227 189 198 230 239 263 269 274 266 198 229 256 272 290 302 305 306 303 298 296 295 300 300 300 300 294 295 299 297 296 296 299 298 290 286 286 288 288 286
223 251 256 241 46 319 245 234 217 241 244 246 270 274 81 230 283 288 301 310 311 307 299 298 301 303 301 298 302 297 291 290 294 297 295 296 301 301 295 291 292 295 293 283
175 218 266 237 189 181 232 230 233 250 261 241 251 263 113 349 309 306 305 312 312 311 308 308 307 303 302 300 298 293 288 293 297 295 294 294 297 299 300 299 297 296 295 290
214 229 245 265 295 231 241 240 228 219 239 251 249 268 273 285 298 307 311 310 309 304 307 309 306 302 299 299 298 295 295 298 297 293 289 289 293 295 296 298 299 296 293 291
228 245 251 267 275 265 257 253 233 226 238 251 265 269 281 293 297 299 304 306 306 304 306 305 302 302 300 299 301 299 300 303 298 291 288 289 293 296 297 296 297 297 293 290
223 248 262 267 266 264 264 257 244 241 246 251 264 271 284 297 293 291 298 299 299 304 306 304 303 302 298 297 301 301 299 299 295 289 289 294 294 296 296 296 297 297 296 293
203 213 252 267 280 276 261 242 224 230 233 238 252 270 301 298 300 301 302 295 293 299 306 305 302 297 296 295 299 299 297 295 288 286 289 291 292 293 295 297 296 295 295 293
206 219 244 275 280 253 272 29 227 241 249 238 252 276 288 293 303 295 285 284 298 306 305 301 300 300 299 299 301 300 296 290 287 288 289 291 292 293 295 295 293 294 292 290
217 209 234 249 264 273 278 236 210 237 260 236 251 277 300 310 298 284 264 291 299 301 300 298 297 295 294 293 296 295 291 290 287 290 292 294 292 290 292 292 292 293 291 287
134 213 231 240 255 258 302 45 313 232 254 160 266 284 304 307 293 304 342 320 310 308 307 306 304 299 291 293 293 284 284 287 289 294 296 296 292 288 287 289 291 291 288 286
191 209 229 244 255 264 357 61 189 244 312 348 298 292 288 285 292 308 310 308 306 307 307 304 299 292 288 290 284 279 283 285 294 298 298 294 290 287 286 288 287 288 288 287
204 207 216 223 240 262 92 146 235 301 330 313 306 302 295 294 297 299 303 304 305 305 303 300 296 293 293 285 277 279 284 294 300 298 295 292 291 289 287 286 287 286 286 285
223 228 225 218 246 330 207 250 291 314 299 302 302 301 295 292 293 299 300 301 300 299 299 296 291 291 293 288 279 279 290 299 300 296 294 293 291 287 285 283 284 285 282 282
238 261 245 261 271 287 279 283 300 305 300 299 302 300 293 290 292 297 298 298 298 297 295 294 291 288 291 293 289 283 288 293 291 291 293 292 288 287 284 279 278 280 282 282
268 210 245 260 284 300 276 274 300 313 314 311 309 302 295 293 293 294 294 294 294 293 294 291 286 285 289 293 290 288 288 288 287 288 288 288 285 286 286 284 282 282 277 282
221 218 234 264 273 271 288 299 311 312 312 311 311 308 305 297 291 293 292 293 291 289 291 289 286 287 288 288 287 288 286 282 282 285 287 287 285 287 288 290 290 284 283 289